Weather History for Newport, AR

Change the Weather History Date:

Thursday, June 27, 2013

  Actual Average (KJBR) Record (KJBR)
Temperature  
Mean Temperature 86 °F 80 °F  
Max Temperature 99 °F 91 °F 108 °F (1901)
Min Temperature 73 °F 69 °F 55 °F (1974)
Degree Days  
Heating Degree Days 0 0  
Month to date heating degree days 0  
Since 1 June heating degree days 0  
Since 1 July heating degree days 3652  
Cooling Degree Days 21 15  
Month to date cooling degree days 337  
Year to date cooling degree days 550  
Since 1 June cooling degree days 337  
Growing Degree Days 36 (Base 50)    
Moisture  
Dew Point 72 °F    
Average Humidity 70    
Maximum Humidity 90    
Minimum Humidity 41    
Precipitation  
Precipitation 0.24 in 0.16 in 2.07 in (1898)
Month to date precipitation 3.23  
Year to date precipitation 24.51  
Snow  
Snow 0.00 in 0.00 in - ()
Month to date snowfall 0.0  
Since 1 June snowfall 0.0  
Since 1 July snowfall 4.8  
Snow Depth -    
Sea Level Pressure  
Sea Level Pressure 29.89 in    
Wind  
Wind Speed 10 mph (WSW)    
Max Wind Speed 48 mph    
Max Gust Speed 56 mph    
Visibility 8 miles    
Events Rain , Thunderstorm    
T = Trace of Precipitation, MM = Missing Value Source: NWS Daily Summary

Daily Weather History Graph

Daily Weather History Graph

Search for Another Location

Airport:

Trip Planner

Search our weather history database for the weather conditions in past years. The results will help you decide how hot, cold, wet, or windy it might be!

Date:

Astronomy

Jun. 27, 2013 Rise Set
Actual Time 5:51 AM CDT 8:24 PM CDT
Civil Twilight 5:21 AM CDT 8:54 PM CDT
Nautical Twilight 4:43 AM CDT 9:31 PM CDT
Astronomical Twilight 4:02 AM CDT 10:12 PM CDT
Moon 11:33 PM CDT (6/27) 10:42 AM CDT (6/27)
Length of Visible Light 15h 33m
Length of Day
14h 33m
Waning Gibbous, 76% of the Moon is Illuminated
Jun 27
Waning Gibbous
Jun 29
Last Quarter
Jul 8
New
Jul 15
First Quarter
Jul 22
Full

Hourly Weather History & Observations

Time (CDT) Temp. Heat Index Dew Point Humidity Pressure Visibility Wind Dir Wind Speed Gust Speed Precip Events Conditions
12:56 AM 81.9 °F 86.6 °F 72.0 °F 72% 29.88 in 10.0 mi SW 9.2 mph - N/A   Clear
1:56 AM 81.0 °F 85.2 °F 72.0 °F 74% 29.88 in 10.0 mi SW 6.9 mph - N/A   Clear
2:56 AM 79.0 °F - 72.0 °F 79% 29.89 in 10.0 mi SW 8.1 mph - N/A   Clear
3:56 AM 77.9 °F - 72.0 °F 82% 29.90 in 10.0 mi SW 8.1 mph - N/A   Clear
4:56 AM 77.9 °F - 72.9 °F 84% 29.91 in 10.0 mi WSW 4.6 mph - N/A   Clear
5:56 AM 77.9 °F - 72.9 °F 84% 29.91 in 7.0 mi WSW 6.9 mph - N/A   Clear
6:56 AM 79.9 °F - 73.9 °F 82% 29.91 in 10.0 mi WSW 4.6 mph - N/A   Clear
7:56 AM 84.9 °F 92.1 °F 73.9 °F 69% 29.92 in 10.0 mi WSW 4.6 mph - N/A   Clear
8:56 AM 88.0 °F 97.5 °F 74.8 °F 65% 29.93 in 10.0 mi WSW 6.9 mph - N/A   Clear
9:56 AM 90.9 °F 102.4 °F 75.9 °F 61% 29.93 in 10.0 mi West 5.8 mph - N/A   Clear
10:56 AM 92.8 °F 106.9 °F 77.0 °F 60% 29.92 in 10.0 mi Variable 5.8 mph - N/A   Clear
11:56 AM 93.9 °F 106.9 °F 75.9 °F 56% 29.92 in 10.0 mi West 6.9 mph - N/A   Clear
12:56 PM 97.0 °F 112.7 °F 77.0 °F 53% 29.91 in 10.0 mi West 10.4 mph - N/A   Clear
1:56 PM 99.0 °F 114.5 °F 77.0 °F 49% 29.90 in 10.0 mi West 4.6 mph - N/A   Clear
2:56 PM 99.0 °F 108.5 °F 72.0 °F 42% 29.89 in 10.0 mi NNW 9.2 mph - N/A   Partly Cloudy
3:56 PM 99.9 °F 110.6 °F 72.9 °F 42% 29.88 in 10.0 mi WNW 4.6 mph - N/A   Clear
4:56 PM 99.9 °F 109.7 °F 72.0 °F 41% 29.86 in 10.0 mi West 11.5 mph - N/A   Clear
5:15 PM 98.6 °F 107.7 °F 71.6 °F 42% 29.84 in 10.0 mi West 10.4 mph - N/A Thunderstorm Clear
5:43 PM 96.8 °F 107.3 °F 73.4 °F 47% 29.87 in 1.2 mi East 12.7 mph 16.1 mph N/A Thunderstorm Haze
5:56 PM 88.9 °F 95.6 °F 72.0 °F 57% 29.86 in 1.2 mi East 13.8 mph - N/A Thunderstorm Haze
6:00 PM 86.0 °F 91.8 °F 71.6 °F 62% 29.86 in 2.5 mi ENE 16.1 mph - N/A Thunderstorm Haze
6:06 PM 82.4 °F 86.3 °F 69.8 °F 66% 29.86 in 10.0 mi ENE 17.3 mph - N/A Thunderstorm Thunderstorm
6:17 PM 78.8 °F - 73.4 °F 83% 29.88 in 2.5 mi ENE 48.3 mph 51.8 mph 0.02 in Rain , Thunderstorm Thunderstorms and Rain
6:20 PM 75.2 °F - 71.6 °F 89% 29.86 in 1.2 mi ENE 47.2 mph 56.4 mph 0.12 in Rain , Thunderstorm Heavy Thunderstorms and Rain
6:29 PM 73.4 °F - 69.8 °F 88% 29.89 in 2.0 mi East 31.1 mph 52.9 mph 0.23 in Rain , Thunderstorm Heavy Thunderstorms and Rain
6:37 PM 75.2 °F - 66.2 °F 73% 29.88 in 9.0 mi East 25.3 mph 31.1 mph 0.23 in Rain , Thunderstorm Heavy Thunderstorms and Rain
6:56 PM 75.9 °F - 68.9 °F 79% 29.93 in 1.8 mi SSW 11.5 mph - 0.24 in Rain , Thunderstorm Light Thunderstorms and Rain
7:03 PM 77.0 °F - 66.2 °F 69% 29.93 in 4.0 mi SW 11.5 mph - 0.00 in Rain , Thunderstorm Thunderstorms and Rain
7:49 PM 75.2 °F - 71.6 °F 89% 29.91 in 10.0 mi SSW 12.7 mph - 0.00 in Rain Light Rain
7:56 PM 77.0 °F - 72.0 °F 84% 29.89 in 10.0 mi SW 10.4 mph - 0.00 in   Clear
8:56 PM 77.0 °F - 72.0 °F 84% 29.85 in 10.0 mi NW 3.5 mph - N/A   Clear
9:56 PM 75.9 °F - 72.0 °F 87% 29.84 in 10.0 mi NNW 6.9 mph - N/A   Clear
10:56 PM 75.9 °F - 72.9 °F 90% 29.85 in 10.0 mi SW 4.6 mph - N/A   Clear
11:56 PM 77.0 °F - 72.0 °F 84% 29.87 in 10.0 mi Calm Calm - N/A   Clear